When you browse on this site, cookies collect data to enhance your experience and personalize the content and advertising you see.
Visit our Privacy Policy to learn more. By continuing to use the site, you agree to this use of cookies and data.
  • En España
  • Lista de países
  • Para 7 días
  • Temperatura del agua
  • El tiempo en el mapa
  • Informadores
  • user-avatar
    Iniciar sesión

    Tiempo cada hora Korçe

    Hoy, 8 Diciembre, Domingo

    Tiempo Temperatura Precipitaciones Viento Presión Humedad
    00:00 +5°C° 0 mm 1 mps 667 mmHg 94%
    01:00 +5°C° 0 mm 1 mps 667 mmHg 94%
    02:00 +5°C° 0 mm 1 mps 667 mmHg 93%
    03:00 +5°C° 0 mm 1 mps 666 mmHg 93%
    04:00 +4°C° 0 mm 1 mps 666 mmHg 92%
    05:00 +4°C° 0 mm 1 mps 666 mmHg 91%
    06:00 +5°C° 0 mm 1 mps 667 mmHg 91%
    07:00 +5°C° 0 mm 1 mps 667 mmHg 90%
    08:00 +6°C° 0 mm 1 mps 668 mmHg 86%
    09:00 +7°C° 0 mm 1 mps 668 mmHg 81%
    10:00 +9°C° 0 mm 1 mps 668 mmHg 76%
    11:00 +9°C° 0 mm 1 mps 668 mmHg 74%
    12:00 +9°C° 0 mm 2 mps 668 mmHg 72%
    13:00 +9°C° 0 mm 2 mps 668 mmHg 70%
    14:00 +8°C° 0 mm 2 mps 668 mmHg 75%
    15:00 +8°C° 0 mm 1 mps 667 mmHg 80%
    16:00 +7°C° 0 mm 1 mps 667 mmHg 84%
    17:00 +7°C° 0 mm 1 mps 667 mmHg 86%
    18:00 +6°C° 0 mm 1 mps 667 mmHg 89%
    19:00 +5°C° 0 mm 1 mps 667 mmHg 91%
    20:00 +5°C° 0 mm 1 mps 666 mmHg 90%
    21:00 +4°C° 0 mm 0 mps 666 mmHg 89%
    22:00 +3°C° 0 mm 0 mps 666 mmHg 88%
    23:00 +3°C° 0 mm 0 mps 666 mmHg 87%

    Mañana, 9 Diciembre, Lunes

    Tiempo Temperatura Precipitaciones Viento Presión Humedad
    00:00 +3°C° 0 mm 0 mps 666 mmHg 86%
    01:00 +4°C° 0 mm 1 mps 665 mmHg 85%
    02:00 +4°C° 0 mm 1 mps 665 mmHg 85%
    03:00 +4°C° 0 mm 1 mps 664 mmHg 84%
    04:00 +3°C° 0 mm 1 mps 664 mmHg 84%
    05:00 +3°C° 0 mm 1 mps 664 mmHg 84%
    06:00 +3°C° 0 mm 1 mps 664 mmHg 84%
    07:00 +3°C° 0 mm 1 mps 664 mmHg 84%
    08:00 +5°C° 0 mm 1 mps 664 mmHg 79%
    09:00 +6°C° 0 mm 1 mps 664 mmHg 74%
    10:00 +8°C° 0 mm 1 mps 665 mmHg 70%
    11:00 +9°C° 0 mm 1 mps 664 mmHg 68%
    12:00 +9°C° 0 mm 1 mps 664 mmHg 67%
    13:00 +9°C° 0 mm 1 mps 663 mmHg 65%
    14:00 +8°C° 0 mm 1 mps 663 mmHg 71%
    15:00 +7°C° 0 mm 1 mps 662 mmHg 76%
    16:00 +6°C° 0 mm 1 mps 662 mmHg 81%
    17:00 +6°C° 0 mm 1 mps 661 mmHg 84%
    18:00 +5°C° 0 mm 1 mps 661 mmHg 87%
    19:00 +5°C° 0 mm 1 mps 661 mmHg 90%
    20:00 +5°C° 0 mm 1 mps 661 mmHg 91%
    21:00 +4°C° 0 mm 1 mps 661 mmHg 91%
    22:00 +4°C° 0 mm 1 mps 661 mmHg 92%
    23:00 +4°C° 0 mm 1 mps 661 mmHg 92%

    Pasado mañana, 10 Diciembre, Martes

    Tiempo Temperatura Precipitaciones Viento Presión Humedad
    00:00 +5°C° 0 mm 1 mps 661 mmHg 92%
    01:00 +5°C° 0 mm 1 mps 660 mmHg 92%
    02:00 +5°C° 0 mm 1 mps 660 mmHg 91%
    03:00 +5°C° 0 mm 1 mps 660 mmHg 90%
    04:00 +5°C° 0 mm 1 mps 660 mmHg 90%
    05:00 +5°C° 0 mm 1 mps 660 mmHg 89%
    06:00 +5°C° 0 mm 1 mps 660 mmHg 89%
    07:00 +4°C° 0 mm 1 mps 659 mmHg 88%
    08:00 +5°C° 0.1 mm 1 mps 660 mmHg 86%
    09:00 +5°C° 0.1 mm 2 mps 660 mmHg 83%
    10:00 +6°C° 0.1 mm 2 mps 660 mmHg 81%
    11:00 +5°C° 0.3 mm 2 mps 660 mmHg 83%
    12:00 +5°C° 0.3 mm 2 mps 660 mmHg 85%
    13:00 +5°C° 0.3 mm 2 mps 659 mmHg 87%
    14:00 +5°C° 0.7 mm 2 mps 659 mmHg 89%
    15:00 +5°C° 0.7 mm 2 mps 659 mmHg 90%
    16:00 +4°C° 0.7 mm 2 mps 658 mmHg 92%
    17:00 +4°C° 0.6 mm 2 mps 658 mmHg 92%
    18:00 +4°C° 0.6 mm 2 mps 658 mmHg 92%
    19:00 +4°C° 0.6 mm 2 mps 658 mmHg 93%
    20:00 +4°C° 0.9 mm 2 mps 659 mmHg 93%
    21:00 +4°C° 0.9 mm 2 mps 659 mmHg 93%
    22:00 +4°C° 0.9 mm 2 mps 659 mmHg 93%
    23:00 +4°C° 0.5 mm 2 mps 659 mmHg 93%

    11 Diciembre, Miércoles

    Tiempo Temperatura Precipitaciones Viento Presión Humedad
    00:00 +3°C° 0.5 mm 3 mps 659 mmHg 92%
    01:00 +3°C° 0.5 mm 3 mps 659 mmHg 92%
    02:00 +3°C° 0.1 mm 3 mps 658 mmHg 92%
    03:00 +3°C° 0.1 mm 3 mps 658 mmHg 91%
    04:00 +3°C° 0.1 mm 3 mps 658 mmHg 90%
    05:00 +2°C° 0 mm 3 mps 659 mmHg 90%
    06:00 +2°C° 0 mm 3 mps 659 mmHg 89%
    07:00 +2°C° 0 mm 3 mps 659 mmHg 89%
    08:00 +2°C° 0.1 mm 3 mps 659 mmHg 87%
    09:00 +2°C° 0.1 mm 3 mps 660 mmHg 85%
    10:00 +2°C° 0.1 mm 3 mps 660 mmHg 84%
    11:00 +3°C° 0.1 mm 3 mps 660 mmHg 82%
    12:00 +3°C° 0.1 mm 3 mps 660 mmHg 81%
    13:00 +3°C° 0.1 mm 3 mps 660 mmHg 79%
    14:00 +3°C° 0 mm 3 mps 660 mmHg 80%
    15:00 +3°C° 0 mm 2 mps 660 mmHg 81%
    16:00 +3°C° 0 mm 2 mps 660 mmHg 83%
    17:00 +2°C° 0 mm 2 mps 660 mmHg 84%
    18:00 +1°C° 0 mm 2 mps 660 mmHg 86%
    19:00 +1°C° 0 mm 2 mps 660 mmHg 88%
    20:00 +1°C° 0 mm 2 mps 661 mmHg 88%
    21:00 -1°C° 0 mm 2 mps 661 mmHg 87%
    22:00 -1°C° 0 mm 2 mps 661 mmHg 87%
    23:00 -1°C° 0 mm 2 mps 661 mmHg 87%

    12 Diciembre, Jueves

    Tiempo Temperatura Precipitaciones Viento Presión Humedad
    00:00 -1°C° 0 mm 2 mps 661 mmHg 87%
    01:00 -1°C° 0 mm 2 mps 661 mmHg 86%
    02:00 -1°C° 0 mm 2 mps 661 mmHg 86%
    03:00 -1°C° 0 mm 2 mps 661 mmHg 86%
    04:00 -1°C° 0 mm 2 mps 660 mmHg 85%
    05:00 -1°C° 0 mm 2 mps 661 mmHg 85%
    06:00 +1°C° 0 mm 1 mps 661 mmHg 85%
    07:00 +1°C° 0 mm 1 mps 661 mmHg 85%
    08:00 +3°C° 0 mm 1 mps 661 mmHg 79%
    09:00 +5°C° 0 mm 1 mps 662 mmHg 74%
    10:00 +7°C° 0 mm 1 mps 663 mmHg 69%
    11:00 +7°C° 0 mm 1 mps 662 mmHg 68%
    12:00 +8°C° 0 mm 1 mps 662 mmHg 67%
    13:00 +8°C° 0 mm 1 mps 662 mmHg 66%
    14:00 +7°C° 0 mm 1 mps 662 mmHg 72%
    15:00 +6°C° 0 mm 1 mps 662 mmHg 79%
    16:00 +4°C° 0 mm 0 mps 661 mmHg 85%
    17:00 +3°C° 0 mm 0 mps 661 mmHg 86%
    18:00 +3°C° 0 mm 0 mps 661 mmHg 88%
    19:00 +2°C° 0 mm 0 mps 662 mmHg 89%
    20:00 +3°C° 0 mm 1 mps 662 mmHg 90%
    21:00 +3°C° 0 mm 1 mps 661 mmHg 91%
    22:00 +3°C° 0 mm 1 mps 661 mmHg 92%
    23:00 +3°C° 0 mm 1 mps 661 mmHg 92%

    13 Diciembre, Viernes

    Tiempo Temperatura Precipitaciones Viento Presión Humedad
    00:00 +1°C° 0 mm 0 mps 661 mmHg 92%
    01:00 +1°C° 0 mm 0 mps 661 mmHg 92%
    02:00 +1°C° 0 mm 0 mps 661 mmHg 92%
    03:00 +1°C° 0 mm 0 mps 661 mmHg 92%
    04:00 0°C° 0 mm 0 mps 661 mmHg 92%
    05:00 0°C° 0 mm 0 mps 661 mmHg 92%
    06:00 0°C° 0 mm 0 mps 661 mmHg 92%
    07:00 0°C° 0 mm 0 mps 661 mmHg 91%
    08:00 +3°C° 0 mm 1 mps 661 mmHg 86%
    09:00 +4°C° 0 mm 1 mps 662 mmHg 80%
    10:00 +6°C° 0 mm 1 mps 662 mmHg 74%
    11:00 +6°C° 0 mm 1 mps 662 mmHg 72%
    12:00 +7°C° 0 mm 1 mps 661 mmHg 70%
    13:00 +7°C° 0 mm 1 mps 661 mmHg 68%
    14:00 +6°C° 0 mm 1 mps 661 mmHg 73%
    15:00 +5°C° 0 mm 1 mps 660 mmHg 78%
    16:00 +4°C° 0 mm 1 mps 660 mmHg 83%
    17:00 +4°C° 0 mm 1 mps 660 mmHg 86%
    18:00 +3°C° 0 mm 1 mps 660 mmHg 89%
    19:00 +3°C° 0 mm 1 mps 660 mmHg 92%
    20:00 +3°C° 0 mm 1 mps 660 mmHg 93%
    21:00 +3°C° 0 mm 1 mps 660 mmHg 93%
    22:00 +2°C° 0 mm 1 mps 660 mmHg 94%
    23:00 +2°C° 0 mm 1 mps 660 mmHg 94%
    Mostrar más